(196721) = 2003 SM109 = 1996 HD25 = 2001 FN182

Discovered at Kitt Peak on 2003-09-20 by Spacewatch.

Orbit

Orbit type: Main Belt

Note: WebGL enabled browser required.

epoch2024-03-31.0
epoch JD2460400.5
perihelion date2019-04-20.24298
perihelion JD2458593.74298
argument of perihelion (°)66.74474
ascending node (°)215.77252
inclination (°)18.01103
eccentricity0.1374191
perihelion distance (AU)2.7178839
Tisserand w.r.t. Jupiter3.1
ΔV w.r.t. Earth (km/sec)11.7
semimajor axis (AU)3.1508744
mean anomaly (°)318.38819
mean daily motion (°/day)0.17622080
aphelion distance (AU)3.584
period (years)5.59
P-vector [x]0.19041553
P-vector [y]-0.97516047
P-vector [z]-0.11315470
Q-vector [x]0.96492064
Q-vector [y]0.16469077
Q-vector [z]0.20446299
absolute magnitude15.06
phase slope0.15
uncertainty0
referenceMPEC 2024-F50
observations used602
oppositions17
arc length (days)10195
first opposition used1996
last opposition used2024
residual rms (arc-secs)0.75
perturbers coarse indicatorM-v
perturbers precise indicator003Ek
first observation date used1996-04-20.0
last observation date used2024-03-19.0
computer nameMPCLINUX
JD of orbit computation2456966.905453
perihelion JD uncertainty (days)1.7786E-04
argument of perihelion uncertainty (°)4.0598E-05
ascending node uncertainty (°)1.6723E-05
inclination uncertainty (°)7.8447E-06
eccentricity uncertainty 5.0499E-08
perihelion distance uncertainty (AU)1.6024E-07
Minimum Orbit Intersection Distances (in AU)
for orbit epoch: 2460400.5, reference: E2024-G88
Mercury2.29067
Venus2.03309
Earth1.76052
Mars1.30327
Jupiter1.63428
Saturn5.61626
Uranus15.2335
Neptune26.4343

Observations

614 total observations over interval: 1996 04 20.24792 – 2024 03 19.637212
These data are available for download (format description).

Date (UT) J2000 RA J2000 Dec Magn Location Ref
1996 04 20.24792 15 23 09.59 -14 14 35.0 18.8   809 – European Southern Observatory, La Silla MPC 27278
1996 04 20.26111 15 23 09.06 -14 14 26.4   809 – European Southern Observatory, La Silla MPC 27278
1996 04 20.27431 15 23 08.55 -14 14 20.3   809 – European Southern Observatory, La Silla MPC 27278
1996 04 21.35417 15 22 31.03 -14 04 44.8   809 – European Southern Observatory, La Silla MPC 27278
1996 04 21.36736 15 22 30.53 -14 04 38.0   809 – European Southern Observatory, La Silla MPC 27278
1996 04 21.38056 15 22 30.08 -14 04 30.1   809 – European Southern Observatory, La Silla MPC 27278
2001 03 24.25629 11 39 31.04 -14 06 42.5 19.8 R 699 – Lowell Observatory-LONEOS MPS 30870
2001 03 24.27509 11 39 30.23 -14 06 33.0   699 – Lowell Observatory-LONEOS MPS 30870
2001 03 24.29380 11 39 29.52 -14 06 23.1   699 – Lowell Observatory-LONEOS MPS 30870
2001 03 24.31248 11 39 28.62 -14 06 13.8   699 – Lowell Observatory-LONEOS MPS 30870
2001 03 26.29059 11 38 08.19 -13 49 06.9 19.2 R 688 – Lowell Observatory, Anderson Mesa Station MPS 30870
2001 03 26.31071 11 38 07.33 -13 48 56.8   688 – Lowell Observatory, Anderson Mesa Station MPS 30870
2002 07 11.22587 18 00 23.62 +01 13 52.0 18.8   704 – Lincoln Laboratory ETS, New Mexico MPS 90513
2002 07 11.23894 18 00 23.12 +01 13 52.5 19.5   704 – Lincoln Laboratory ETS, New Mexico MPS 90513
2002 07 11.25208 18 00 22.52 +01 13 51.0 19.9   704 – Lincoln Laboratory ETS, New Mexico MPS 90513
2002 07 11.26519 18 00 21.98 +01 13 52.0 19.5   704 – Lincoln Laboratory ETS, New Mexico MPS 90513
2003 09 20.46411 01 07 24.89 +17 50 15.5 19.9 V 691 – Steward Observatory, Kitt Peak-Spacewatch MPS 85466
2003 09 20.48016 01 07 24.31 +17 50 08.8 19.9 V 691 – Steward Observatory, Kitt Peak-Spacewatch MPS 85466
2003 09 20.49974 01 07 23.58 +17 50 00.7 20.0 V 691 – Steward Observatory, Kitt Peak-Spacewatch MPS 85466
2003 09 21.31678 01 06 54.53 +17 44 20.9 19.0   704 – Lincoln Laboratory ETS, New Mexico MPS 85466
2003 09 21.32885 01 06 54.13 +17 44 16.7 19.6   704 – Lincoln Laboratory ETS, New Mexico MPS 85466
2003 09 21.34114 01 06 53.61 +17 44 10.3 19.4   704 – Lincoln Laboratory ETS, New Mexico MPS 85466
2003 09 21.35339 01 06 53.16 +17 44 07.0 19.5   704 – Lincoln Laboratory ETS, New Mexico MPS 85466
2003 09 21.36619 01 06 52.68 +17 44 00.2 19.5   704 – Lincoln Laboratory ETS, New Mexico MPS 85466
2003 09 30.24634 01 01 08.33 +16 35 13.3 18.9   704 – Lincoln Laboratory ETS, New Mexico MPS 87040
2003 09 30.25958 01 01 07.84 +16 35 06.1 19.2   704 – Lincoln Laboratory ETS, New Mexico MPS 87040
2003 09 30.27243 01 01 07.31 +16 34 59.5 19.3   704 – Lincoln Laboratory ETS, New Mexico MPS 87040
2003 09 30.28569 01 01 06.73 +16 34 53.7 19.2   704 – Lincoln Laboratory ETS, New Mexico MPS 87040
2003 09 30.29863 01 01 06.23 +16 34 45.9 19.3   704 – Lincoln Laboratory ETS, New Mexico MPS 87040
2003 10 01.27566 01 00 26.18 +16 26 29.7 19.8 V 691 – Steward Observatory, Kitt Peak-Spacewatch MPS 87040
2003 10 01.30171 01 00 25.07 +16 26 16.4 19.6 V 691 – Steward Observatory, Kitt Peak-Spacewatch MPS 87040
2003 10 01.32795 01 00 23.96 +16 26 02.9 20.0 V 691 – Steward Observatory, Kitt Peak-Spacewatch MPS 87040
2003 10 16.20027 00 50 09.65 +14 08 33.7 19.7 V 691 – Steward Observatory, Kitt Peak-Spacewatch MPS 87342
2003 10 16.22851 00 50 08.49 +14 08 17.2 19.8 V 691 – Steward Observatory, Kitt Peak-Spacewatch MPS 87342
2003 10 16.25605 00 50 07.36 +14 08 01.5 19.5 V 691 – Steward Observatory, Kitt Peak-Spacewatch MPS 87342
2003 10 22.19090 00 46 20.26 +13 10 18.9 19.7 V 691 – Steward Observatory, Kitt Peak-Spacewatch MPS 88175
2003 10 22.21745 00 46 19.25 +13 10 03.4 19.7 V 691 – Steward Observatory, Kitt Peak-Spacewatch MPS 88175
2003 10 22.24391 00 46 18.25 +13 09 48.1 19.9 V 691 – Steward Observatory, Kitt Peak-Spacewatch MPS 88175
2007 04 16.29986 14 14 52.58 -15 06 06.8 18.8 R 699 – Lowell Observatory-LONEOS MPS 206876
2007 04 16.31690 14 14 51.76 -15 05 56.9 18.6   704 – Lincoln Laboratory ETS, New Mexico MPS 206876
2007 04 16.31903 14 14 51.76 -15 05 55.6   699 – Lowell Observatory-LONEOS MPS 206876
2007 04 16.32615 14 14 51.43 -15 05 52.1 18.8   704 – Lincoln Laboratory ETS, New Mexico MPS 206877
2007 04 16.33541 14 14 51.09 -15 05 47.1 18.8   704 – Lincoln Laboratory ETS, New Mexico MPS 206877
2007 04 16.33822 14 14 50.93 -15 05 46.2   699 – Lowell Observatory-LONEOS MPS 206877
2007 04 16.34467 14 14 50.62 -15 05 42.1 19.2   704 – Lincoln Laboratory ETS, New Mexico MPS 206877
2007 04 16.35393 14 14 50.24 -15 05 36.5 19.1   704 – Lincoln Laboratory ETS, New Mexico MPS 206877
2007 04 16.35741 14 14 50.14 -15 05 35.0   699 – Lowell Observatory-LONEOS MPS 206877
2007 04 18.38766 14 13 26.65 -14 46 48.5 19.0 V G96 – Mt. Lemmon Survey MPS 206877
2007 04 18.39508 14 13 26.32 -14 46 44.4 18.9 V G96 – Mt. Lemmon Survey MPS 206877
2007 04 18.40433 14 13 25.93 -14 46 39.0 19.0 V G96 – Mt. Lemmon Survey MPS 206877
2007 04 18.42129 14 13 25.17 -14 46 29.8 18.9 V G96 – Mt. Lemmon Survey MPS 206877
2007 05 07.28473 14 00 17.24 -11 44 48.5 19.2 V 703 – Catalina Sky Survey MPS 208885
2007 05 07.29461 14 00 16.81 -11 44 41.6 19.7 V 703 – Catalina Sky Survey MPS 208885
2007 05 07.30448 14 00 16.41 -11 44 36.3 19.3 V 703 – Catalina Sky Survey MPS 208885
2007 05 07.31438 14 00 16.02 -11 44 31.4 19.7 V 703 – Catalina Sky Survey MPS 208885
2007 05 09.28069 13 59 00.27 -11 25 56.7 19.2 V G96 – Mt. Lemmon Survey MPS 208885
2007 05 09.28874 13 58 59.98 -11 25 52.2 19.2 V G96 – Mt. Lemmon Survey MPS 208885
2007 05 09.29679 13 58 59.66 -11 25 47.6 19.2 V G96 – Mt. Lemmon Survey MPS 208885
2007 05 09.30502 13 58 59.34 -11 25 42.9 19.2 V G96 – Mt. Lemmon Survey MPS 208885
2007 05 13.26473 13 56 34.82 -10 49 09.8 19.6   704 – Lincoln Laboratory ETS, New Mexico MPS 208885
2007 05 13.27412 13 56 34.51 -10 49 06.5 20.3   704 – Lincoln Laboratory ETS, New Mexico MPS 208885
2007 05 13.28348 13 56 34.14 -10 49 00.9 20.2   704 – Lincoln Laboratory ETS, New Mexico MPS 208885
2007 05 21.28132 13 52 23.41 -09 40 12.2 19.4 V 703 – Catalina Sky Survey MPS 210128
2007 05 21.29152 13 52 23.12 -09 40 08.5 19.4 V 703 – Catalina Sky Survey MPS 210128
2007 05 21.30174 13 52 22.83 -09 40 03.5 19.4 V 703 – Catalina Sky Survey MPS 210128
2007 05 21.31192 13 52 22.51 -09 39 58.1 19.5 V 703 – Catalina Sky Survey MPS 210128
2008 05 31.41159 21 31 50.01 +07 43 24.3 20.1 V G96 – Mt. Lemmon Survey MPS 250934
2008 05 31.41928 21 31 50.23 +07 43 28.5 20.0 V G96 – Mt. Lemmon Survey MPS 250934
2008 05 31.42685 21 31 50.44 +07 43 32.7 20.0 V G96 – Mt. Lemmon Survey MPS 250934
2008 05 31.43444 21 31 50.62 +07 43 37.2 20.1 V G96 – Mt. Lemmon Survey MPS 250934
2008 09 30.16197 20 55 36.64 +05 17 24.2 19.7   704 – Lincoln Laboratory ETS, New Mexico MPS 257853
2008 09 30.17440 20 55 36.79 +05 17 17.5 20.4   704 – Lincoln Laboratory ETS, New Mexico MPS 257853
2008 09 30.18672 20 55 36.80 +05 17 10.8 20.3   704 – Lincoln Laboratory ETS, New Mexico MPS 257853
2008 09 30.19911 20 55 36.80 +05 17 03.8 20.4   704 – Lincoln Laboratory ETS, New Mexico MPS 257853
2008 09 30.21154 20 55 36.96 +05 16 57.8 20.3   704 – Lincoln Laboratory ETS, New Mexico MPS 257853
2009 07 31.43984 03 07 10.49 +18 57 21.3 20.5 V 691 – Steward Observatory, Kitt Peak-Spacewatch MPS 291424
2009 07 31.45542 03 07 11.31 +18 57 22.1 20.9 V 691 – Steward Observatory, Kitt Peak-Spacewatch MPS 291424
2009 07 31.46803 03 07 11.94 +18 57 22.6 20.9 V 691 – Steward Observatory, Kitt Peak-Spacewatch MPS 291424
2009 10 23.36471 03 16 57.46 +14 06 31.7 19.4 V G96 – Mt. Lemmon Survey MPS 300474
2009 10 23.37089 03 16 57.21 +14 06 28.9 19.4 V G96 – Mt. Lemmon Survey MPS 300474
2009 10 23.37702 03 16 56.92 +14 06 26.3 19.5 V G96 – Mt. Lemmon Survey MPS 300474
2009 10 23.38318 03 16 56.71 +14 06 23.5 19.5 V G96 – Mt. Lemmon Survey MPS 300474
2009 10 24.39394 03 16 15.74 +13 59 02.8 19.8 V 703 – Catalina Sky Survey MPS 301887
2009 10 24.40411 03 16 15.34 +13 58 57.9 19.7 V 703 – Catalina Sky Survey MPS 301887
2009 10 24.41420 03 16 14.95 +13 58 54.6 19.8 V 703 – Catalina Sky Survey MPS 301887
2009 10 24.42439 03 16 14.48 +13 58 50.2 19.9 V 703 – Catalina Sky Survey MPS 301887
